STARLINK-11431, 62890

Orbit data source: Space-Track

STARLINK-11431, 62890 is a payload satellite owned by SpaceX/Seattle (US) in LEO that was launched on Tue, 04 Feb 2025 UTC via an FALCON 9 launch vehicle from the Air Force Eastern Test Range (AFETR). Payload-class satellites include a variety of spacecraft equipped with specific instruments for various scientific and technological missions. These include communications satellites like Starlink; space stations such as the ISS; scientific satellites like the Hubble; Earth observation satellites from companies like Planet Labs, Umbra, and HawkEye 360; GPS; miniature CubeSats for education and research; and military/defense satellites.

Loading next visibility...
Identifier
62890, 2025-024M
Orbit
LEO
Country
Flag of USUS
Related business
Manufacturer
SpaceX/Seattle
Mission
Operational Commercial Communications
Bus & Motor
STARLINK V2MD, Unknown motor
Mass
960 kg wet, ~910 kg dry
Launch date (UTC)
2025-02-04 (10 months ago)
Launch vehicle
FALCON 9
Launch site
Air Force Eastern Test Range (AFETR)
Object type
Payload
Rocket body
Debris
Shape & HBR
Box + 2 Pan, 18.1 m
Radar Cross Section
36.964 m², Large (>1 m²)

Expand to show TLE details & history
Last TLE update: 1 day ago

TLE from 1 day ago
0 STARLINK-11431
1 62890U 25024M   25348.24665958  .00248130  00000-0  18767-2 0  9994
2 62890  42.9994 336.9230 0001918 278.2146  81.8504 15.70882237 50025
Epoch: 2025-12-14T05:55Z
TLE epoch observation values (Epoch: 2025-12-14T05:55:11.387Z)
Latitude
-0.00003°
Longitude
164.96319°
Altitude
355.963 km
Speed
7.698 km/s
True Right ascension
22h 27m 41s
True Declination
0° 00' 00"
Sunlit
Object was in daylight at epoch
Visualization orbit readout
Latitude
Unknown
Longitude
Unknown
Altitude
Unknown
Speed
Unknown
Apparent Right ascension
Unknown
Apparent Declination
Unknown
Sunlit
N/A
Visualization observer readout
Local Sidereal Time
12:44:17
Azimuth
Unknown
Elevation
Unknown
Doppler factor
Unknown
Orbital elements
Apogee altitude
359.648 km
Perigee altitude
357.064 km
Semi-major axis
6,736.493 km
Eccentricity
0.00019
Inclination
42.9994°
RAAN
336.923°
Arg. of periapsis
278.2146°
True anomaly
81.87216°
Mean anomaly
81.8504°
Eccentric anomaly
81.86128°
Mean motion
3.92548 °/min
Orbital period
91.71 mins
BSTAR
0.0018767
Loading maneuver chart data...
Computing Atmospheric mass density...
Loading historical data...
Loading historical data...
Loading historical data...
Loading historical data...
Loading historical data...
Loading historical data...
Loading historical data...

Documentation

Showing up to 5 results
|